Hickory, NC

1:37 AM EDT on August 30, 2016 (GMT -0400)
Hickory Regional

Weather History for KHKY - August, 2013

Change the Weather History Date:

Thursday, August 29, 2013

  Actual Average Record
Temperature  
Mean Temperature 82 °F -  
Max Temperature 91 °F 85 °F 95 °F (2007)
Min Temperature 73 °F 64 °F 45 °F (1986)
Cooling Degree Days 17    
Growing Degree Days 32 (Base 50)    
Moisture  
Dew Point 69 °F    
Average Humidity 75    
Maximum Humidity 94    
Minimum Humidity 44    
Precipitation  
Precipitation 1.33 in - - ()
Sea Level Pressure  
Sea Level Pressure 29.95 in    
Wind  
Wind Speed 4 mph (NNE)    
Max Wind Speed 10 mph    
Max Gust Speed 36 mph    
Visibility 7 miles    
Events Fog , Rain , Thunderstorm    
Averages and records for this station are not official NWS values.
T = Trace of Precipitation, MM = Missing Value Source: NWS Daily Summary

Daily Weather History Graph

Daily Weather History Graph

Search for Another Location

Airport or City:

Trip Planner

Search our weather history database for the weather conditions in past years. The results will help you decide how hot, cold, wet, or windy it might be!

Date:

Astronomy

Aug. 29, 2013 Rise Set
Actual Time 6:55 AM EDT 7:56 PM EDT
Civil Twilight 6:29 AM EDT 8:22 PM EDT
Nautical Twilight 5:58 AM EDT 8:53 PM EDT
Astronomical Twilight 5:25 AM EDT 9:26 PM EDT
Moon 12:51 AM EDT (8/29) 3:18 PM EDT (8/29)
Length of Visible Light 13h 53m
Length of Day
13h 01m
Last Quarter, 38% of the Moon is Illuminated
Aug 29
Last Quarter
Sep 5
New
Sep 12
First Quarter
Sep 19
Full
Sep 26
Last Quarter

Hourly Weather History & Observations

Time (EDT) Temp. Heat Index Dew Point Humidity Pressure Visibility Wind Dir Wind Speed Gust Speed Precip Events Conditions
12:53 AM 75.9 °F - 66.9 °F 74% 29.88 in 10.0 mi SW 3.5 mph - N/A   Clear
1:53 AM 75.0 °F - 66.9 °F 76% 29.88 in 10.0 mi Calm Calm - N/A   Clear
2:53 AM 75.0 °F - 66.9 °F 76% 29.86 in 9.0 mi West 3.5 mph - N/A   Clear
3:53 AM 75.0 °F - 66.9 °F 76% 29.86 in 10.0 mi Calm Calm - 0.00 in Rain Light Rain
4:53 AM 77.0 °F - 66.9 °F 71% 29.86 in 10.0 mi Calm Calm - 0.00 in   Overcast
5:53 AM 77.0 °F - 66.9 °F 71% 29.87 in 10.0 mi West 4.6 mph - N/A   Overcast
6:53 AM 75.0 °F - 66.9 °F 76% 29.89 in 9.0 mi West 3.5 mph - N/A   Mostly Cloudy
7:53 AM 75.9 °F - 68.0 °F 76% 29.90 in 9.0 mi WNW 5.8 mph - N/A   Clear
8:53 AM 79.0 °F - 68.0 °F 69% 29.91 in 9.0 mi WNW 3.5 mph - N/A   Clear
9:53 AM 82.9 °F 86.5 °F 69.1 °F 63% 29.91 in 10.0 mi NW 4.6 mph - N/A   Clear
10:53 AM 86.0 °F 89.4 °F 68.0 °F 55% 29.92 in 10.0 mi NW 9.2 mph - N/A   Clear
11:53 AM 87.1 °F 90.6 °F 68.0 °F 53% 29.92 in 10.0 mi NNW 6.9 mph - N/A   Clear
12:53 PM 89.1 °F 92.1 °F 66.9 °F 48% 29.90 in 10.0 mi Variable 5.8 mph - N/A   Partly Cloudy
1:53 PM 90.0 °F 93.6 °F 68.0 °F 48% 29.90 in 10.0 mi North 4.6 mph - N/A   Scattered Clouds
2:53 PM 91.0 °F 94.3 °F 66.9 °F 45% 29.88 in 10.0 mi North 3.5 mph - N/A   Scattered Clouds
3:53 PM 91.0 °F 93.8 °F 66.0 °F 44% 29.87 in 10.0 mi Variable 4.6 mph - N/A   Partly Cloudy
4:53 PM 86.0 °F 90.1 °F 69.1 °F 57% 29.88 in 10.0 mi East 3.5 mph - N/A   Scattered Clouds
5:53 PM 89.1 °F 93.7 °F 69.1 °F 52% 29.87 in 10.0 mi East 9.2 mph - N/A   Partly Cloudy
6:53 PM 84.9 °F 90.1 °F 71.1 °F 63% 29.88 in 10.0 mi Variable 4.6 mph - N/A   Clear
7:53 PM 82.0 °F 86.3 °F 71.1 °F 69% 29.91 in 10.0 mi East 4.6 mph - N/A   Clear
8:12 PM 80.6 °F 84.6 °F 71.6 °F 74% 29.99 in 10.0 mi NE 6.9 mph - N/A Thunderstorm Thunderstorm
8:37 PM 75.2 °F - 69.8 °F 83% 30.00 in 2.0 mi Variable 6.9 mph 35.7 mph 0.13 in Rain Heavy Rain
8:44 PM 75.2 °F - 66.2 °F 73% 30.01 in 1.8 mi ENE 10.4 mph - 0.19 in Rain Rain
8:50 PM 73.4 °F - 69.8 °F 88% 30.00 in 2.5 mi East 9.2 mph - 0.24 in Rain , Thunderstorm Heavy Rain
8:51 PM 73.9 °F - 69.1 °F 85% 29.93 in 2.5 mi East 9.2 mph - 0.25 in Rain , Thunderstorm Heavy Rain
9:05 PM 75.2 °F - 69.8 °F 83% 30.00 in 4.0 mi ENE 4.6 mph - 0.09 in Rain Rain
9:39 PM 73.4 °F - 71.6 °F 94% 30.02 in 7.0 mi NNW 5.8 mph - 0.10 in Thunderstorm Overcast
9:53 PM 73.9 °F - 71.1 °F 91% 29.96 in 4.0 mi NNE 4.6 mph - 0.13 in Rain , Thunderstorm Rain
9:58 PM 73.4 °F - 71.6 °F 94% 30.04 in 1.8 mi North 3.5 mph - 0.09 in Rain , Thunderstorm Heavy Rain
10:07 PM 73.4 °F - 71.6 °F 94% 30.04 in 0.8 mi East 9.2 mph 16.1 mph 0.42 in Rain , Thunderstorm Heavy Rain
10:14 PM 73.4 °F - 71.6 °F 94% 30.04 in 0.5 mi South 5.8 mph - 0.79 in Fog , Rain Heavy Rain
10:21 PM 73.4 °F - 71.6 °F 94% 30.04 in 0.8 mi South 4.6 mph - 0.90 in Rain , Thunderstorm Heavy Thunderstorms and Rain
10:25 PM 73.4 °F - 71.6 °F 94% 30.04 in 2.0 mi Calm Calm - 0.90 in Rain , Thunderstorm Light Thunderstorms and Rain
10:32 PM 75.2 °F - 71.6 °F 89% 30.04 in 8.0 mi Calm Calm - 0.90 in Rain , Thunderstorm Light Thunderstorms and Rain
10:46 PM 75.2 °F - 71.6 °F 89% 30.05 in 4.0 mi Calm Calm - 0.94 in Rain , Thunderstorm Light Thunderstorms and Rain
10:53 PM 73.9 °F - 72.0 °F 93% 29.97 in 4.0 mi Calm Calm - 0.95 in Rain , Thunderstorm Light Thunderstorms and Rain
10:59 PM 73.4 °F - 71.6 °F 94% 30.05 in 5.0 mi Calm Calm - 0.00 in Rain Light Rain
11:53 PM 73.9 °F - 71.1 °F 91% 29.97 in 6.0 mi North 4.6 mph - 0.00 in   Overcast